Zurück zum Katalog

ATLAS AGENA R/B

AktivMEO
NORAD 27786·ROCKET BODY·🇺🇸 United States

Gestartet Apr 13, 1969 von Cape Canaveral Space Force Station

Loading…

Nächste Überflüge (nächste 24 Stunden)

TLE

AlterndSource: Space-Track

Epoche: Aug 30, 2026, 03:58 UTC

1 27786U 69036B   26242.16587051 -.00000062  00000-0  00000+0 0  9991
2 27786  14.5093  25.7183 1057348 251.4724  96.8504  1.03852613 27586

Verfolge ATLAS AGENA R/B in Echtzeit mit AllMySat

Download on the App Store